Location: Paimpol
(48.7798°N, 3.0488°W)
Time: 12:42:27
(UTC+02:00)

ISS - Visible Passes

Search period start: 27 September 2021 00:00
Search period end: 07 October 2021 00:00
Orbit: 417 x 422 km, 51.6° (Epoch: 27 September)

Date Brightness Start Highest point End Pass type
(mag) Time Alt. Az. Time Alt. Az. Time Alt. Az.
27 Sep -3.7 21:51:11 10° WNW 21:54:32 65° NNE 21:54:43 63° NE visible
28 Sep -3.4 21:03:51 10° WNW 21:07:11 55° N 21:09:11 21° E visible
28 Sep -1.3 22:40:44 10° WNW 22:42:09 22° W 22:42:09 22° W visible
29 Sep -3.7 21:53:23 10° WNW 21:56:38 75° SW 21:56:38 75° SW visible
30 Sep -3.8 21:06:03 10° WNW 21:09:27 81° NNE 21:11:09 27° ESE visible
30 Sep -0.9 22:43:11 10° W 22:44:08 16° W 22:44:08 16° W visible
01 Oct -3.6 20:18:44 10° WNW 20:22:06 65° NNE 20:25:27 10° E visible
01 Oct -2.6 21:55:41 10° WNW 21:58:42 36° SW 21:58:42 36° SW visible
02 Oct -3.2 21:08:17 10° WNW 21:11:35 53° SSW 21:13:20 24° SE visible
03 Oct -3.6 20:20:56 10° WNW 20:24:18 75° SSW 20:27:40 10° ESE visible
03 Oct -1.4 21:58:27 10° W 22:00:41 17° SW 22:01:01 16° SW visible
04 Oct -1.8 21:10:44 10° W 21:13:32 24° SW 21:15:50 13° SSE visible
05 Oct -2.3 20:23:13 10° W 20:26:20 36° SSW 20:29:27 10° SE visible
06 Oct -0.7 21:14:31 10° WSW 21:15:17 11° SW 21:16:03 10° SSW visible
